World > North America > United States > Florida > Minneola  

Minneola, FL Hourly Weather Updates

Feedback E-mail the Weather

Quick Clicks

Minneola, FL Weather Maps

°F °C°F °C
Minneola Weather Map
UTC Time: 4/25/2024, 07:29
Your Time:

Minneola, FL Regional Weather

Expires:202404250800;;334338
ASUS42 KTBW 250711
RWRFL 
FLORIDA REGIONAL WEATHER ROUNDUP
NATIONAL WEATHER SERVICE TAMPA BAY RUSKIN FL
300 AM EDT THU APR 25 2024

NOTE: "FAIR" INDICATES FEW OR NO CLOUDS BELOW 12,000 FEET WITH NO
SIGNIFICANT WEATHER AND/OR OBSTRUCTIONS TO VISIBILITY.


FLZ040-043>046-052-053-057-058-063-144-250800-
INTERIOR CENTRAL FLORIDA
  
CITY           SKY/WX    TMP DP  RH WIND       PRES   REMARKS
OCALA          CLEAR     58  55  90 CALM      30.13F                  
LEESBURG       CLEAR     68  57  68 S9        30.13F                  
SANFORD        CLEAR     64  56  75 S3        30.12F                  
ORLANDO EXEC   CLEAR     65  57  75 S6        30.13F                  
ORLANDO INTL   CLEAR     62  57  83 CALM      30.13F                  
KISSIMMEE      CLEAR     63  57  81 CALM      30.14F                  
WINTER HAVEN   CLEAR     65  57  75 SE3       30.14F                  
LAKELAND INTL  CLEAR     63  55  73 E3        30.13F                  
BARTOW         CLEAR     59  54  82 CALM      30.14S                  
SEBRING        CLEAR     61  55  82 N5        30.13S                  
OKEECHOBEE     CLEAR     57  55  94 CALM      30.11S                  

$$

SKY/WX - Weather  TMP - Temperature  DP - Dew Point  RH - Humidity
WIND - Wind Direction/Speed PRES - Barometric Pressure VSB - Visibility
WCI - Wind Chill Index E13G22 Wind - East Wind 13 mph/Gusts of 22 mph

Trending Headlines

Trending Entertainment Headlines

Minneola Radar Loop

Use the map search tool if you want to place a location marker on the radar map...

Minneola Quick Facts

National Two Day Weather Forecast


E-mail the Minneola Weather Forecast

Voice your opinion or tell us about page issues...